Flag for Germany Weather past 2 weeks in Munich, Bavaria, Germany

Now
59 °F

Partly sunny.


Feels Like: 60 °F
Forecast: 47 / 67 °F
Wind: 3 mph from Northeast

Location: Oberpfaffenhofen

Current Time: Aug 20, 2014 at 6:52:49 PM

Latest Report: Aug 20, 2014 at 6:20 PM


Visibility: N/A

Pressure: 30.01 "Hg

Humidity: 72%

Dew point: 50 °F

Location of MunichLocation

Historic Weather in Munich — Graph

°F

Munich temperature yesterday

Maximum temperature yesterday: 68 °F (at 4:50 PM)
Minimum temperature yesterday: 52 °F (at 6:50 AM)
Average temperature yesterday: 61 °F

Past Weeks' High & Low Weather Summary

 TemperatureHumidityPressure
High84 °F (Aug 10, 2:50 PM)100% (Aug 6, 7:20 AM)30.15 "Hg (Aug 6, 7:20 AM)
Low50 °F (Aug 6, 6:50 AM)37% (Aug 10, 2:50 PM)29.68 "Hg (Aug 13, 3:50 PM)
Average63 °F71%29.99 "Hg
* Reported Aug 5 5:20 PM — Aug 20 5:50 PM, Munich, Weather by CustomWeather, © 2014

Note: Actual official high and low records may vary slightly from our data, if they occured in-between our weather recording intervals... More about our weather records

Advertising

Munich weather history for previous 24 hours

 ConditionsComfort  
Time TempWeatherWind HumidityBarometerVisibility
5:50 PM
Aug 20
59 °FPartly sunny.2 mph68%30.01 "HgN/A
5:20 PM59 °FPartly sunny.2 mph68%30.04 "HgN/A
4:50 PM59 °FPartly sunny.2 mph68%30.04 "HgN/A
4:20 PM59 °FPartly sunny.5 mph72%30.04 "HgN/A
3:50 PM59 °FBroken clouds.5 mph68%30.04 "HgN/A
3:20 PM59 °FBroken clouds.5 mph72%30.04 "HgN/A
2:50 PM59 °FPartly sunny.3 mph68%30.04 "HgN/A
2:20 PM57 °FSprinkles. Clear.1 mph77%30.04 "HgN/A
1:50 PM57 °FPartly sunny.3 mph77%30.04 "HgN/A
1:20 PM57 °FPartly sunny.2 mph72%30.04 "HgN/A
12:50 PM57 °FPartly sunny.3 mph72%30.04 "HgN/A
12:20 PM57 °FPartly sunny.3 mph72%30.04 "HgN/A
11:50 AM57 °FBroken clouds.2 mph67%30.07 "HgN/A
11:20 AM57 °FPartly sunny.2 mph72%30.07 "HgN/A
10:50 AM57 °FPartly sunny.3 mph72%30.07 "HgN/A
10:20 AM57 °FPartly sunny.3 mph67%30.07 "HgN/A
9:50 AM55 °FPartly sunny.3 mph77%30.07 "HgN/A
9:20 AM55 °FSunny.2 mph77%30.07 "Hg10 mi
8:50 AM55 °FSunny.2 mph77%30.04 "Hg10 mi
8:20 AM55 °FPartly sunny.No wind82%30.04 "HgN/A
7:50 AM54 °FPartly sunny.No wind88%30.04 "HgN/A
7:20 AM54 °FSunny.2 mph88%30.04 "Hg10 mi
6:50 AM52 °FClear.2 mph94%30.04 "Hg10 mi
7:50 PM
Aug 19
63 °FSunny.6 mph68%29.95 "Hg10 mi
7:20 PM63 °FSunny.7 mph64%29.95 "Hg10 mi
6:50 PM64 °FSunny.9 mph56%29.92 "Hg10 mi
6:20 PM64 °FSunny.13 mph56%29.92 "Hg10 mi
Weather by CustomWeather, © 2014

See weather overviewHow to use our weather pages